Location: Rimouski
(48.4330°N, 68.5170°W)
Time: 03:04:27
(UTC-04:00)

Envisat - Pass Details

Date: 19 April 2019
Orbit: 764 x 766 km, 98.2° (Epoch: 21 May)

Event Time Altitude Azimuth Distance (km) Brightness Sun altitude
Rises 20:41:07 0° 222° (SW) 3,224 6.4 -11.4°
Reaches altitude 10° 20:45:04 10° 253° (WSW) 2,305 6.1 -11.9°
Maximum altitude 20:46:56 12° 275° (W) 2,175 6.3 -12.2°
Drops below altitude 10° 20:48:49 10° 297° (WNW) 2,311 7.0 -12.4°
Sets 20:52:49 0° 328° (NNW) 3,245 7.6 -13.0°
